Temp
19 20 20 20 21 21 22 22 23 23 24 24 25 25 26 26 27 28 28 29 29 28 28 26 25 23 22 22 22 23 27 29 30 29 30 28 28 26 25 25 25 24 24 24 23
19 19 20 20 21 21 22 22 23 23 24 24 24 25 26 27 27 28 28 29 29 29 28 27 26 24 22 23 23 25 27 29 30 31 31 30 29 28 27 26 25 23 24 24 24
19 19 20 20 21 21 22 22 23 23 23 24 25 25 26 26 27 27 27 28 28 28 27 27 26 25 24 24 25 25 29 30 30 30 30 30 29 28 28 26 26 25 24 24 24
18 19 19 20 21 21 22 22 22 23 23 24 25 26 26 26 27 27 28 27 27 27 27 26 26 25 27 28 27 27 28 28 29 30 29 28 29 29 28 30 28 27 27 25 24
18 19 19 20 20 21 22 22 23 23 24 24 25 25 26 26 27 27 28 27 27 26 27 27 26 27 29 28 28 28 29 29 29 28 28 27 29 30 28 27 28 27 26 26 25
18 19 19 20 20 21 22 22 23 23 24 24 25 25 25 24 27 28 27 27 27 27 27 27 28 28 27 28 28 29 29 29 29 28 27 28 28 28 27 25 26 26 24 25 24
17 18 19 19 20 21 22 22 23 24 24 24 25 25 25 27 27 27 27 27 27 27 28 28 28 27 27 28 27 28 30 32 31 29 29 28 29 29 26 24 23 22 22 22 24
17 18 18 19 20 21 22 22 23 24 24 25 25 25 25 27 27 28 27 28 27 27 27 27 27 26 26 27 28 29 29 31 31 29 27 29 31 32 25 24 23 22 22 21 24
17 17 18 19 19 20 21 22 23 24 24 25 24 24 25 27 27 28 28 28 28 28 27 27 26 26 26 28 29 28 30 29 29 29 29 30 31 32 25 25 24 22 21 21 23
16 17 17 18 19 20 21 22 23 24 24 24 23 23 26 27 27 27 27 28 28 27 27 26 25 27 27 29 28 28 28 29 28 29 30 30 30 32 28 25 24 23 21 20 22
15 16 17 18 18 19 21 22 22 22 22 24 23 24 26 26 27 28 27 28 27 27 28 25 28 28 29 27 27 27 27 27 29 29 28 29 29 30 25 25 24 23 21 20 20
15 16 16 17 18 19 19 20 18 18 18 24 24 24 25 25 24 27 27 27 27 28 25 27 27 28 26 26 27 27 27 28 29 28 29 29 30 25 24 24 25 23 21 21 19
14 15 16 17 18 19 19 19 19 19 18 22 24 25 25 26 25 27 27 28 28 27 27 28 28 26 27 27 27 28 27 29 29 28 28 28 29 25 23 22 23 23 21 21 20
14 14 15 17 18 18 18 18 19 19 21 24 23 25 24 25 26 28 28 28 27 28 26 27 27 27 27 27 28 28 28 28 27 28 30 27 30 26 23 21 21 20 20 20 20
13 14 15 15 16 17 17 18 19 19 21 25 24 24 24 25 26 27 27 27 28 27 27 28 26 26 27 28 27 29 27 27 27 28 28 28 30 29 23 24 20 19 20 20 21
13 13 15 15 16 17 18 18 18 21 20 24 24 25 25 24 26 26 26 26 27 27 26 28 25 28 29 28 27 27 27 25 25 27 29 27 28 30 29 27 23 21 20 20 21
13 14 14 15 16 17 17 18 20 20 22 24 24 24 24 25 26 27 26 26 27 26 26 27 27 27 27 28 27 27 28 28 28 28 29 24 27 29 27 24 24 22 21 20 19
14 14 15 16 16 17 17 19 18 20 21 22 23 24 24 24 25 26 25 26 25 26 26 26 27 27 28 29 29 28 29 28 27 27 28 24 28 31 25 22 21 22 20 20 20
14 15 16 16 17 16 16 18 20 19 21 21 23 24 24 24 24 24 26 27 27 26 27 26 26 26 26 28 29 26 27 27 25 22 26 27 27 28 25 23 21 21 20 20 20
14 15 15 15 16 16 17 18 19 18 20 21 22 22 23 24 25 25 25 25 26 25 25 26 26 27 28 27 25 28 26 27 26 25 26 26 26 29 27 26 22 21 20 20 20
13 13 14 15 14 15 18 17 18 18 19 21 21 22 22 22 23 24 25 25 25 24 24 25 27 27 27 28 29 26 27 24 26 25 28 27 28 28 27 26 24 23 22 21 21
12 14 13 13 15 11 16 16 17 20 19 21 21 21 22 22 23 24 25 25 23 24 25 24 26 27 28 26 26 27 28 27 28 25 24 26 29 27 26 25 23 25 23 21 21
10 11 13 13 16 16 15 17 18 20 20 20 20 21 21 22 22 23 24 24 23 24 24 23 24 27 27 26 25 27 26 25 23 24 24 27 29 23 23 23 23 23 22 20 22
9 13 12 13 13 15 17 17 18 18 19 19 21 21 21 22 21 23 24 24 22 22 20 22 21 25 27 27 26 26 25 24 26 27 26 28 28 29 27 24 23 22 22 20 22
9 12 10 15 15 15 16 17 17 17 19 18 19 20 21 21 22 22 22 24 24 21 21 23 24 23 24 24 25 26 27 25 25 26 29 28 27 28 25 23 23 22 21 19 20
8 9 10 12 12 14 13 16 17 18 18 20 19 21 20 21 23 23 23 22 24 24 23 21 24 22 25 24 25 26 26 26 25 24 25 25 26 23 23 22 23 21 21 20 20
8 8 8 12 13 15 16 17 17 17 19 19 20 20 19 22 21 21 20 20 21 22 22 22 23 23 25 23 25 26 25 26 25 23 23 27 22 21 21 21 20 20 20 21 21
Height
1552 1551 1549 1548 1547 1546 1545 1543 1541 1539 1537 1535 1534 1532 1531 1529 1528 1527 1526 1528 1528 1529 1530 1532 1533 1533 1535 1535 1534 1533 1531 1528 1521 1521 1515 1515 1515 1518 1520 1522 1522 1523 1523 1523 1526
1551 1550 1549 1548 1547 1545 1544 1542 1540 1538 1536 1534 1532 1531 1529 1527 1526 1524 1524 1524 1526 1527 1529 1530 1532 1533 1535 1533 1533 1532 1532 1523 1515 1513 1513 1512 1512 1514 1517 1520 1522 1522 1521 1522 1525
1551 1550 1549 1547 1546 1544 1543 1542 1539 1537 1535 1533 1531 1529 1528 1526 1524 1523 1522 1522 1524 1527 1529 1531 1531 1533 1533 1532 1531 1530 1525 1517 1513 1510 1512 1510 1509 1511 1512 1517 1516 1515 1518 1522 1525
1550 1549 1547 1546 1544 1543 1542 1540 1539 1536 1534 1532 1530 1528 1526 1525 1527 1523 1521 1521 1524 1526 1528 1529 1531 1532 1530 1528 1527 1528 1521 1518 1512 1510 1508 1508 1505 1504 1507 1508 1510 1512 1516 1520 1524
1549 1547 1545 1544 1542 1541 1539 1538 1536 1534 1532 1530 1529 1527 1526 1525 1523 1522 1522 1522 1524 1526 1528 1528 1529 1530 1529 1526 1526 1524 1518 1515 1513 1508 1504 1505 1503 1503 1502 1505 1508 1510 1515 1519 1523
1547 1544 1543 1541 1540 1538 1537 1535 1533 1531 1529 1528 1527 1526 1525 1525 1521 1521 1522 1522 1524 1525 1526 1527 1527 1527 1527 1525 1525 1521 1517 1512 1510 1507 1504 1505 1503 1504 1502 1502 1506 1508 1514 1518 1521
1544 1543 1541 1539 1538 1536 1535 1533 1530 1529 1527 1526 1525 1524 1523 1520 1519 1519 1520 1522 1523 1524 1525 1525 1526 1527 1526 1523 1523 1520 1516 1507 1507 1507 1506 1503 1504 1503 1505 1505 1506 1510 1514 1517 1521
1541 1540 1539 1537 1535 1533 1532 1530 1527 1526 1525 1523 1522 1522 1518 1516 1516 1517 1518 1520 1522 1523 1524 1524 1524 1524 1524 1523 1521 1519 1518 1516 1509 1509 1509 1506 1505 1498 1503 1506 1508 1512 1512 1517 1520
1539 1537 1536 1534 1532 1530 1529 1526 1524 1523 1521 1520 1521 1520 1515 1512 1513 1514 1516 1517 1519 1521 1522 1522 1522 1522 1522 1521 1521 1521 1524 1523 1515 1510 1510 1508 1504 1496 1501 1504 1509 1511 1512 1516 1518
1537 1535 1533 1532 1529 1527 1525 1523 1521 1519 1519 1518 1517 1520 1512 1512 1511 1512 1513 1514 1516 1518 1520 1521 1521 1520 1521 1519 1530 1527 1526 1520 1520 1512 1507 1506 1502 1495 1502 1505 1508 1514 1518 1519 1518
1535 1532 1531 1529 1527 1524 1523 1521 1521 1519 1515 1514 1513 1511 1508 1509 1509 1509 1510 1511 1513 1516 1516 1518 1519 1521 1516 1518 1519 1521 1524 1523 1510 1510 1512 1505 1503 1498 1504 1505 1506 1510 1515 1517 1519
1531 1530 1528 1527 1525 1523 1522 1521 1522 1524 1515 1509 1507 1506 1505 1507 1508 1506 1508 1510 1509 1511 1515 1517 1518 1513 1516 1518 1519 1520 1521 1516 1507 1506 1507 1501 1501 1505 1504 1502 1504 1508 1511 1512 1512
1530 1527 1525 1524 1523 1522 1522 1522 1521 1521 1518 1504 1501 1499 1499 1502 1500 1499 1503 1503 1505 1509 1511 1513 1510 1511 1513 1514 1517 1513 1517 1510 1509 1506 1502 1502 1503 1508 1508 1506 1504 1503 1506 1506 1504
1528 1525 1523 1522 1524 1521 1521 1521 1519 1519 1519 1502 1497 1494 1494 1496 1495 1491 1497 1500 1503 1503 1509 1509 1506 1508 1511 1512 1512 1515 1504 1505 1507 1507 1511 1506 1513 1508 1508 1508 1506 1504 1503 1502 1500
1527 1524 1522 1521 1521 1521 1522 1520 1519 1519 1532 1494 1492 1491 1491 1493 1490 1485 1490 1495 1495 1499 1504 1504 1504 1506 1508 1506 1507 1506 1503 1504 1504 1503 1506 1508 1507 1498 1506 1502 1505 1503 1503 1500 1498
1525 1522 1520 1519 1518 1519 1518 1519 1520 1524 1529 1494 1488 1488 1490 1489 1487 1486 1488 1491 1492 1497 1499 1498 1501 1501 1498 1499 1501 1501 1504 1507 1507 1504 1513 1511 1509 1499 1493 1490 1493 1498 1498 1501 1503
1522 1519 1517 1516 1516 1516 1516 1519 1523 1524 1500 1493 1490 1487 1488 1485 1483 1482 1484 1487 1490 1505 1503 1495 1497 1496 1497 1500 1500 1501 1504 1515 1519 1516 1515 1516 1511 1493 1486 1490 1490 1495 1498 1502 1504
1518 1514 1512 1511 1512 1513 1514 1518 1525 1503 1498 1492 1490 1487 1486 1483 1480 1479 1482 1485 1486 1488 1496 1503 1507 1492 1490 1491 1493 1497 1496 1508 1530 1525 1512 1515 1510 1488 1487 1490 1490 1491 1496 1498 1500
1513 1509 1506 1506 1506 1509 1513 1513 1503 1502 1495 1494 1490 1489 1485 1482 1483 1481 1478 1479 1476 1480 1491 1499 1500 1485 1485 1486 1487 1498 1501 1497 1514 1528 1518 1507 1499 1483 1484 1486 1488 1490 1492 1493 1496
1508 1505 1502 1502 1503 1506 1509 1501 1498 1498 1496 1494 1495 1490 1492 1486 1482 1480 1479 1476 1477 1477 1478 1484 1497 1483 1481 1484 1489 1486 1491 1503 1506 1526 1527 1514 1509 1491 1479 1476 1482 1485 1486 1489 1492
1507 1504 1501 1499 1502 1506 1502 1500 1499 1496 1498 1495 1494 1493 1491 1490 1485 1480 1480 1476 1475 1477 1479 1481 1483 1486 1483 1483 1482 1492 1492 1501 1500 1506 1506 1511 1500 1473 1471 1471 1474 1477 1479 1487 1490
1507 1505 1500 1501 1504 1505 1500 1499 1497 1494 1495 1495 1493 1492 1491 1488 1486 1480 1479 1475 1475 1475 1478 1479 1479 1485 1480 1479 1480 1479 1482 1486 1495 1511 1507 1502 1490 1468 1469 1470 1472 1473 1478 1484 1487
1507 1504 1501 1501 1500 1499 1499 1496 1495 1493 1492 1492 1491 1489 1487 1487 1490 1481 1478 1476 1474 1474 1475 1478 1484 1484 1484 1482 1482 1479 1481 1484 1491 1492 1502 1497 1485 1470 1471 1470 1469 1472 1478 1482 1485
1509 1503 1501 1502 1501 1499 1496 1494 1493 1491 1490 1489 1487 1487 1488 1485 1484 1482 1478 1475 1474 1475 1475 1476 1484 1479 1481 1477 1474 1479 1478 1482 1480 1485 1489 1483 1475 1465 1467 1468 1469 1473 1475 1478 1481
1510 1505 1503 1498 1499 1498 1497 1494 1493 1493 1487 1485 1484 1483 1482 1485 1482 1482 1479 1474 1474 1475 1476 1476 1479 1482 1477 1478 1476 1472 1471 1476 1480 1476 1474 1472 1476 1468 1473 1474 1472 1474 1477 1479 1479
1510 1509 1503 1499 1498 1497 1495 1491 1489 1486 1486 1481 1483 1477 1479 1480 1475 1478 1476 1477 1475 1474 1475 1478 1480 1480 1475 1476 1475 1473 1471 1475 1476 1478 1477 1478 1477 1479 1474 1472 1473 1474 1475 1473 1475
1510 1508 1507 1498 1497 1496 1490 1489 1486 1487 1479 1477 1477 1477 1475 1473 1476 1475 1475 1475 1476 1477 1477 1478 1479 1481 1482 1481 1475 1480 1478 1473 1474 1479 1481 1477 1482 1479 1473 1471 1473 1474 1473 1472 1473
Wind_Speed
10 10 11 11 11 12 12 13 14 14 13 13 13 13 13 12 11 11 12 9 8 8 5 7 7 4 6 3 3 3 3 4 5 4 5 5 10 5 5 8 7 7 4 4 19
12 12 11 12 12 12 12 13 14 15 15 14 14 15 14 14 10 7 8 9 10 9 9 6 7 6 3 3 3 3 2 3 5 8 6 6 13 11 8 9 7 8 7 9 18
13 13 13 13 13 13 13 13 14 15 16 15 15 16 15 14 3 1 3 12 12 9 7 5 3 4 4 4 5 4 4 8 12 16 11 11 11 11 10 10 14 17 16 18 20
15 15 15 14 15 15 14 14 14 15 15 15 15 15 16 10 1 1 4 10 13 13 10 7 6 3 3 4 5 4 12 14 10 20 8 4 4 8 18 11 11 15 16 21 21
16 17 17 17 16 16 16 16 16 16 15 15 14 15 16 9 4 1 3 7 11 12 10 9 9 4 4 4 3 8 7 8 14 11 5 5 9 5 11 10 8 15 23 21 19
18 18 19 19 19 18 17 17 17 16 16 15 14 14 13 6 4 2 3 5 6 8 7 9 4 6 5 5 3 4 15 19 5 3 3 1 5 3 2 12 13 18 25 21 19
18 19 20 20 20 20 18 18 18 18 16 15 14 14 15 15 7 6 5 5 4 2 3 2 2 5 2 5 4 6 9 12 6 6 4 6 6 5 2 11 17 19 22 20 18
20 19 20 20 21 21 19 18 19 18 17 15 14 12 10 9 9 12 10 9 9 7 6 7 7 6 4 5 3 3 2 5 5 9 4 4 11 10 9 14 17 18 20 20 19
21 21 20 20 21 21 19 18 17 17 16 13 11 7 9 6 8 9 11 13 10 8 6 7 6 3 3 2 4 3 7 5 5 7 1 3 12 8 8 14 15 18 18 19 20
20 21 21 20 20 20 17 17 14 13 11 10 11 6 11 3 6 7 6 10 10 8 3 3 3 3 2 3 9 3 5 5 10 3 9 12 14 14 0 10 13 14 11 15 21
21 21 20 20 19 18 16 9 6 6 7 8 3 7 7 6 8 6 7 7 9 6 5 1 5 5 7 4 2 3 5 10 16 7 6 5 10 11 7 5 11 16 15 15 13
20 21 21 19 18 15 10 3 7 6 10 11 19 27 29 26 10 11 11 9 8 7 5 3 6 7 2 5 4 4 8 14 14 5 6 3 6 8 10 3 10 16 19 20 18
21 21 20 18 16 10 5 3 5 9 5 10 14 19 17 17 15 23 15 11 5 7 8 10 6 5 5 5 7 9 9 12 11 4 2 5 4 2 5 5 5 15 19 22 23
20 21 20 17 10 7 2 2 8 3 3 5 5 6 8 11 8 25 23 13 4 12 7 7 5 8 7 7 6 10 6 12 9 4 4 2 4 1 2 3 5 12 19 23 27
19 21 19 15 14 7 4 5 6 3 3 2 3 2 5 9 1 8 22 17 13 9 7 5 6 8 8 5 8 6 2 4 3 4 2 3 4 0 5 7 8 12 15 23 28
19 20 21 17 12 7 7 6 5 3 8 3 2 3 3 8 4 2 9 10 9 7 4 6 3 4 6 4 9 2 2 2 2 1 5 2 4 4 5 4 6 11 18 19 18
20 19 20 18 11 6 5 2 4 5 2 1 1 3 2 3 6 7 9 12 13 8 13 11 10 4 6 6 4 3 3 2 4 4 6 2 4 5 5 7 11 12 17 14 9
22 20 18 17 12 7 6 3 7 5 7 3 3 7 3 1 4 6 7 9 4 4 4 11 9 10 9 12 7 7 4 3 5 4 5 2 3 4 5 7 10 16 14 14 8
22 19 15 9 10 13 7 9 6 6 1 4 4 4 2 1 2 3 8 7 11 10 8 6 5 2 5 3 6 6 5 2 5 1 4 2 4 11 8 9 8 13 15 18 14
22 19 7 6 10 18 4 9 4 3 3 1 3 1 2 4 2 1 6 2 3 10 3 7 6 3 2 5 4 4 8 3 1 4 6 3 4 6 7 10 10 13 20 18 13
19 9 7 4 14 9 7 5 6 8 4 3 1 3 2 3 4 2 2 2 2 3 6 7 7 4 3 7 8 4 4 3 1 2 5 4 4 6 10 7 13 16 20 14 12
7 3 3 18 3 1 4 5 2 7 3 4 2 4 5 5 4 2 1 1 3 4 6 5 4 9 14 2 2 2 4 6 5 5 1 3 4 3 7 7 13 18 15 13 11
14 5 9 2 3 3 2 3 4 6 5 3 4 7 4 4 3 3 2 2 7 2 3 7 3 6 4 4 3 5 5 4 4 1 7 4 3 2 5 8 12 17 12 12 13
5 2 2 8 3 2 0 2 3 4 10 8 9 7 4 5 4 3 1 1 4 3 3 4 2 3 6 2 1 5 7 8 5 4 6 6 3 4 4 9 10 13 13 12 13
3 2 2 2 4 5 2 2 9 6 4 4 4 12 10 6 5 4 3 2 2 3 3 0 2 3 1 3 3 3 10 12 8 3 5 7 7 8 13 10 12 8 11 12 13
3 5 6 4 4 3 4 3 4 5 5 4 8 5 13 6 6 7 4 2 1 2 2 1 1 1 1 1 2 1 2 3 5 2 3 4 2 11 14 12 12 6 11 18 20
5 6 4 4 3 2 2 1 4 6 8 14 8 6 10 16 7 2 2 3 2 2 2 2 1 1 3 6 2 4 2 2 4 6 4 1 5 14 14 16 17 15 10 15 20
Wind_Direction
350 350 347 344 342 342 341 337 334 335 339 342 341 338 330 327 315 292 273 253 224 214 207 157 166 187 177 255 237 267 281 308 329 333 341 170 195 157 179 162 170 191 231 221 176
341 341 338 334 334 336 335 334 330 330 334 336 340 336 334 331 318 284 257 226 221 209 199 190 169 184 229 231 214 236 266 274 289 291 285 246 207 175 169 170 196 183 208 192 179
332 332 330 328 328 328 327 327 325 326 328 332 338 332 334 333 328 51 289 201 197 200 188 184 143 179 227 219 196 181 270 299 292 281 286 257 235 189 187 197 208 198 182 182 182
326 326 325 322 323 320 321 321 320 320 321 327 332 327 330 334 203 360 14 192 178 184 188 187 163 192 262 235 200 236 255 271 294 313 300 237 229 215 208 234 213 207 185 177 184
321 320 319 319 317 316 317 318 316 314 315 319 325 323 330 324 279 17 86 148 179 188 209 212 173 198 253 288 266 251 284 276 294 310 318 186 237 222 225 196 192 187 177 178 182
318 317 317 316 315 313 313 315 310 307 309 311 315 313 318 297 259 267 151 165 189 208 221 226 226 209 277 262 247 295 292 293 311 322 359 171 267 235 202 193 177 181 174 179 185
316 315 315 314 312 310 311 312 306 303 303 303 302 301 296 273 248 224 209 215 237 229 222 237 247 217 264 276 286 279 310 325 19 20 13 302 210 250 182 171 165 171 174 184 185
315 314 313 312 311 310 311 309 303 302 300 297 293 287 268 255 250 236 224 234 241 241 254 282 259 254 224 284 275 287 239 295 16 359 356 309 294 334 163 178 170 170 181 185 194
313 313 312 312 311 310 311 307 303 300 297 293 279 261 263 242 241 228 231 239 245 251 258 257 251 212 197 235 269 29 289 301 317 4 209 299 304 292 161 185 180 179 186 185 200
312 312 312 312 312 312 314 309 301 292 282 279 260 271 245 218 178 190 208 222 225 230 223 186 140 190 132 214 260 280 300 281 283 308 299 298 278 285 322 191 190 186 187 191 207
315 313 313 314 313 317 320 329 306 276 257 231 208 249 248 253 265 227 192 184 182 174 208 123 223 225 245 210 230 251 261 277 282 255 278 285 274 325 25 189 190 191 191 193 204
316 315 314 315 314 318 329 37 49 320 303 264 259 258 259 267 276 241 230 188 170 193 147 188 239 234 149 171 207 236 277 283 291 154 231 287 317 51 33 21 210 194 190 192 193
317 316 315 317 315 310 314 198 339 330 268 283 251 253 257 242 237 246 200 193 171 173 194 239 238 126 194 240 272 269 257 268 260 325 123 312 132 105 33 46 138 194 193 195 194
319 316 317 320 314 331 241 182 323 287 295 268 235 247 217 196 248 246 222 198 184 217 184 250 237 218 226 245 212 274 236 264 268 263 283 331 311 158 115 85 164 183 190 191 200
320 316 315 319 308 315 245 289 316 146 276 197 199 248 197 190 313 227 203 209 199 175 174 213 176 172 192 219 184 267 319 292 216 177 222 162 255 149 228 231 204 210 200 203 209
318 315 309 310 299 293 250 265 160 207 238 291 261 181 188 219 234 151 183 199 210 170 233 237 206 213 241 214 200 116 212 65 71 95 242 111 259 217 208 221 208 208 211 210 215
314 309 303 295 288 274 227 214 192 222 343 257 338 341 307 236 217 204 178 185 196 191 215 223 231 227 213 244 177 176 219 253 219 219 262 94 236 285 238 251 248 222 217 202 217
314 307 298 288 276 242 215 180 219 223 242 325 314 301 268 299 219 195 162 187 192 166 185 214 244 204 191 220 233 193 220 242 247 240 280 140 237 278 231 275 264 233 225 201 240
317 313 302 284 231 204 173 199 222 207 257 314 289 262 308 336 284 206 205 195 200 183 199 173 243 245 208 163 191 163 203 89 115 83 263 303 263 274 243 242 237 229 228 227 241
324 316 300 257 208 182 189 224 224 235 313 321 275 327 359 322 329 283 178 128 243 206 255 196 252 201 128 144 70 233 136 174 180 206 251 204 270 261 263 243 219 224 226 228 243
328 317 322 238 162 175 212 230 251 233 261 298 288 325 334 346 310 318 181 111 22 116 186 159 222 184 196 203 194 146 176 73 106 288 261 251 228 228 267 257 212 216 221 217 236
332 279 342 144 166 238 206 204 244 272 209 262 279 266 274 309 287 272 200 73 35 174 173 183 193 225 222 137 338 182 186 180 238 195 216 294 243 210 254 259 227 222 207 205 215
330 277 172 122 218 204 244 253 249 249 238 212 247 232 227 231 242 241 265 91 24 146 188 175 205 224 188 166 153 212 187 173 119 138 191 224 237 171 259 259 230 227 204 200 209
320 276 145 228 272 282 77 251 248 269 255 236 248 241 236 238 204 289 260 298 11 34 109 115 142 233 255 296 1 180 183 183 209 190 165 224 270 262 271 263 253 236 227 208 218
290 293 341 200 241 232 254 278 278 286 243 216 223 223 212 235 183 213 251 298 141 41 79 53 160 212 206 241 277 250 189 173 199 236 216 167 211 355 1 351 332 250 235 228 219
309 331 333 285 290 257 195 227 261 259 235 251 229 237 212 226 209 190 180 223 272 34 81 359 144 299 173 35 337 4 122 161 226 170 290 6 77 9 334 351 358 314 238 225 231
327 314 305 297 313 234 205 265 283 319 248 238 263 270 203 221 244 256 150 105 79 8 53 30 96 359 262 1 323 229 9 252 122 80 336 199 359 335 329 343 356 341 303 262 247